Location: Newark
(49.3000°N, 9.4667°E)
Time: 17:33:48
(UTC+00:00)

Transit 2A Rocket - Pass Details

Date: 19 May 2019
Orbit: 587 x 917 km, 66.7° (Epoch: 24 June)

Event Time Altitude Azimuth Distance (km) Brightness Sun altitude
Rises 01:09:17 0° 324° (NW) 3,504 8.8 -16.8°
Reaches altitude 10° 01:12:04 10° 332° (NNW) 2,526 8.1 -16.6°
Maximum altitude 01:17:28 37° 40° (NE) 1,258 6.7 -16.1°
Drops below altitude 10° 01:22:28 10° 108° (ESE) 2,324 7.6 -15.7°
Sets 01:24:55 0° 116° (ESE) 3,192 8.3 -15.5°
